Change the Weather History Date:

Monday, April 29, 2013

  Actual Average Record
Temperature  
Mean Temperature 67 °F 56 °F  
Max Temperature 87 °F 70 °F 87 °F (2013)
Min Temperature 47 °F 43 °F 32 °F (1949)
Degree Days  
Heating Degree Days 0    
Month to date heating degree days 179  
Since 1 July heating degree days 2744  
Cooling Degree Days 2    
Month to date cooling degree days 3  
Year to date cooling degree days 3  
Growing Degree Days 16 (Base 50)    
Moisture  
Dew Point 53 °F    
Average Humidity 64    
Maximum Humidity 93    
Minimum Humidity 34    
Precipitation  
Precipitation 0.00 in - 0.34 in (1948)
Month to date precipitation 0.71  
Year to date precipitation 1.70  
Since 1 July precipitation 9.49  
Sea Level Pressure  
Sea Level Pressure 29.81 in    
Wind  
Wind Speed 6 mph (South)    
Max Wind Speed 15 mph    
Max Gust Speed 17 mph    
Visibility 10 miles    
Events      
T = Trace of Precipitation, MM = Missing Value Source: NWS Daily Summary

Daily Weather History Graph

Daily Weather History Graph

Search for Another Location

Airport or City:

Trip Planner

Search our weather history database for the weather conditions in past years. The results will help you decide how hot, cold, wet, or windy it might be!

Date:

Astronomy

Apr. 29, 2013 Rise Set
Actual Time 6:14 AM PDT 7:58 PM PDT
Civil Twilight 5:46 AM PDT 8:27 PM PDT
Nautical Twilight 5:12 AM PDT 9:01 PM PDT
Astronomical Twilight 4:35 AM PDT 9:38 PM PDT
Moon No Moon Rise 9:42 AM PDT (4/29)
Length of Visible Light 14h 40m
Length of Day
13h 44m
Waning Gibbous, 79% of the Moon is Illuminated
Apr 29
Waning Gibbous
May 2
Last Quarter
May 9
New
May 17
First Quarter
May 24
Full

Hourly Weather History & Observations

Time (PDT) Temp. Heat Index Dew Point Humidity Pressure Visibility Wind Dir Wind Speed Gust Speed Precip Events Conditions
12:54 AM 55.9 °F - 52.0 °F 87% 29.86 in 10.0 mi Calm Calm - N/A   Clear
1:54 AM 57.0 °F - 52.0 °F 83% 29.86 in 10.0 mi Calm Calm - N/A   Clear
2:54 AM 55.0 °F - 51.1 °F 86% 29.85 in 10.0 mi South 3.5 mph - N/A   Clear
3:54 AM 53.1 °F - 50.0 °F 89% 29.84 in 10.0 mi ESE 4.6 mph - N/A   Clear
4:54 AM 51.1 °F - 48.0 °F 89% 29.84 in 10.0 mi Calm Calm - N/A   Clear
5:54 AM 46.9 °F - 45.0 °F 93% 29.85 in 9.0 mi Calm Calm - N/A   Clear
6:54 AM 50.0 °F - 46.9 °F 89% 29.87 in 9.0 mi ESE 3.5 mph - N/A   Clear
7:54 AM 61.0 °F - 55.9 °F 83% 29.88 in 9.0 mi Calm Calm - N/A   Clear
8:54 AM 64.9 °F - 53.1 °F 65% 29.88 in 10.0 mi Calm Calm - N/A   Clear
9:54 AM 69.1 °F - 54.0 °F 58% 29.88 in 10.0 mi SW 3.5 mph - N/A   Clear
10:54 AM 73.9 °F - 54.0 °F 50% 29.87 in 10.0 mi Variable 3.5 mph - N/A   Clear
11:54 AM 79.0 °F - 57.0 °F 47% 29.86 in 10.0 mi South 5.8 mph - N/A   Clear
12:54 PM 82.0 °F 81.6 °F 55.9 °F 41% 29.83 in 10.0 mi SSW 8.1 mph - N/A   Clear
1:54 PM 86.0 °F 84.7 °F 55.9 °F 36% 29.81 in 10.0 mi SSW 12.7 mph - N/A   Clear
2:54 PM 86.0 °F 84.5 °F 55.0 °F 35% 29.79 in 10.0 mi SW 11.5 mph - N/A   Clear
3:54 PM 84.9 °F 83.3 °F 54.0 °F 34% 29.77 in 10.0 mi SW 12.7 mph - N/A   Clear
4:54 PM 82.9 °F 81.9 °F 54.0 °F 37% 29.75 in 10.0 mi SSW 12.7 mph - N/A   Clear
5:54 PM 78.1 °F - 54.0 °F 43% 29.74 in 10.0 mi SSW 11.5 mph - N/A   Clear
6:54 PM 75.0 °F - 57.9 °F 55% 29.73 in 10.0 mi South 9.2 mph - N/A   Clear
7:54 PM 68.0 °F - 57.0 °F 68% 29.73 in 10.0 mi SSW 6.9 mph - N/A   Clear
8:54 PM 64.9 °F - 55.0 °F 70% 29.74 in 10.0 mi South 6.9 mph - N/A   Clear
9:54 PM 63.0 °F - 50.0 °F 63% 29.75 in 10.0 mi SW 5.8 mph - N/A   Clear
10:54 PM 60.1 °F - 48.9 °F 67% 29.76 in 10.0 mi South 3.5 mph - N/A   Clear
11:54 PM 55.9 °F - 50.0 °F 80% 29.76 in 10.0 mi SSE 5.8 mph - N/A   Clear